Location: Avebury
(53.1487°N, 106.9774°W)
Time: 18:27:28
(UTC+00:00)

ISS - Visible Passes

Search period start: 25 January 2022 00:00
Search period end: 04 February 2022 00:00
Orbit: 413 x 422 km, 51.6° (Epoch: 25 January)

Date Brightness Start Highest point End Pass type
(mag) Time Alt. Az. Time Alt. Az. Time Alt. Az.
25 Jan -3.2 01:00:29 10° SW 01:03:42 46° SSE 01:05:31 22° E visible
25 Jan -1.4 02:36:58 10° W 02:38:27 24° W 02:38:27 24° W visible
26 Jan -2.7 00:12:38 10° SW 00:15:43 36° SSE 00:18:50 10° E visible
26 Jan -3.8 01:48:56 10° W 01:52:16 68° S 01:52:22 68° SSE visible
27 Jan -3.6 01:00:53 10° WSW 01:04:12 63° S 01:06:14 21° E visible
27 Jan -1.5 02:37:32 10° W 02:39:09 26° W 02:39:09 26° W visible
28 Jan -3.7 01:49:24 10° W 01:52:43 65° S 01:53:00 61° SSE visible
29 Jan -3.6 01:01:15 10° W 01:04:34 69° S 01:06:50 19° E visible
29 Jan -1.6 02:37:58 10° W 02:39:45 26° WSW 02:39:45 26° WSW visible
30 Jan -3.2 01:49:43 10° W 01:52:58 49° SSW 01:53:35 42° SSE visible
31 Jan -3.3 01:01:27 10° W 01:04:45 59° S 01:07:27 14° ESE visible
31 Jan -1.5 02:38:23 10° W 02:40:22 21° SW 02:40:22 21° SW visible
01 Feb -2.2 01:49:56 10° W 01:52:57 31° SSW 01:54:16 23° SSE visible
02 Feb -2.6 01:01:32 10° W 01:04:41 40° SSW 01:07:51 10° SE visible
02 Feb -0.9 02:39:16 10° WSW 02:40:47 13° SW 02:41:11 12° SSW visible
03 Feb -1.2 01:50:16 10° W 01:52:37 18° SW 01:54:57 10° S visible
